{"data":{"norad_id":62555,"intl_designator":"2025-006B","name":"STARLINK-11534 [DTC]","alt_names":[],"object_type":"PAYLOAD","status":"ACTIVE","operator":null,"country":"US","launch_date":"2025-01-10","launch_site_code":"AFETR","launch_vehicle":null,"mission":null,"orbit_class":"UNKNOWN","rcs_meters":null,"size_class":null,"mass_kg":null,"dimensions":null,"purposes":["comms"],"wikipedia_slug":null,"has_3d_model":false,"image_url":null,"decayed_at":null,"tle_current":{"epoch":"2026-05-24T23:26:56.924736Z","epoch_age_seconds":76745,"freshness":"FRESH","line1":"1 62555U 25006B   26144.97704774  .00148342  00000+0  11377-2 0  9990","line2":"2 62555  42.9998  39.7703 0001220 245.2276 114.8465 15.70867547 78608","mean_motion":15.70867547,"eccentricity":0.000122,"inclination_deg":42.9998,"raan_deg":39.7703,"arg_perigee_deg":245.2276,"mean_anomaly_deg":114.8465,"bstar":0.0011377,"rev_number":7860,"period_min":91.669090926862,"perigee_km":355.5947127316,"apogee_km":357.23794374369,"semimajor_km":6734.5533282376,"source":"CELESTRAK","updated_at":"2026-05-25T13:38:19.706615Z"}}}